����,���ϕ���(m/s),���ϕ���,�ő�u�ԕ���(m/s),�ő啗��������,�C��(��),���x(%),10���Ԉړ��ώZ�J��(mm),1���Ԉړ��ώZ�J��(mm),���J��(mm),�݌v�J��(mm)
2019-09-16T00:00:00+09:00,2.6,��,5.1,���쓌,24,79.3,0,0,0,0
2019-09-16T00:01:00+09:00,2.4,��,5.1,���쓌,24,79.3,0,0,0,0
2019-09-16T00:02:00+09:00,2.3,��,4.2,���k��,23.9,79.4,0,0,0,0
2019-09-16T00:03:00+09:00,2.3,��,4.7,��,23.9,79.5,0,0,0,0
2019-09-16T00:04:00+09:00,2.3,��,4.7,��,23.9,79.4,0,0,0,0
2019-09-16T00:05:00+09:00,2.3,��,4.7,��,23.9,79.5,0,0,0,0
2019-09-16T00:06:00+09:00,2.3,��,4.7,��,23.8,80,0,0,0,0
2019-09-16T00:07:00+09:00,2.3,��,4.7,��,23.8,80,0,0,0,0
2019-09-16T00:08:00+09:00,2.2,��,4.7,��,23.9,80,0,0,0,0
2019-09-16T00:09:00+09:00,2.1,��,4.7,��,23.9,79.7,0,0,0,0
2019-09-16T00:10:00+09:00,2.1,��,4.7,��,23.8,80.1,0,0,0,0
2019-09-16T00:11:00+09:00,2.1,��,4.7,��,23.8,80,0,0,0,0
2019-09-16T00:12:00+09:00,2,��,4.7,��,23.8,80.6,0,0,0,0
2019-09-16T00:13:00+09:00,1.9,��,3.5,���k��,23.8,80.3,0,0,0,0
2019-09-16T00:14:00+09:00,1.9,��,3.5,���k��,23.8,80.2,0,0,0,0
2019-09-16T00:15:00+09:00,1.9,��,4,���k��,23.8,80.3,0,0,0,0
2019-09-16T00:16:00+09:00,1.9,��,4,���k��,23.9,80.1,0,0,0,0
2019-09-16T00:17:00+09:00,2,��,4.2,���쓌,23.9,79.9,0,0,0,0
2019-09-16T00:18:00+09:00,2,��,4.2,���쓌,23.9,79.9,0,0,0,0
2019-09-16T00:19:00+09:00,,,,,,,,,,
2019-09-16T00:20:00+09:00,2.1,��,4.2,���쓌,23.9,79.7,0,0,0,0
2019-09-16T00:21:00+09:00,2.1,��,4.2,���쓌,23.8,79.8,0,0,0,0
2019-09-16T00:22:00+09:00,2.2,��,4.2,���쓌,23.8,80.1,0,0,0,0
2019-09-16T00:23:00+09:00,2.2,��,4.2,���쓌,23.8,80.2,0,0,0,0
2019-09-16T00:24:00+09:00,2.2,��,4.2,���쓌,23.7,80.6,0,0,0,0
2019-09-16T00:25:00+09:00,2.2,��,4.2,���쓌,23.7,80.7,0,0,0,0
2019-09-16T00:26:00+09:00,2.1,���쓌,4.2,���쓌,23.7,80.9,0,0,0,0
2019-09-16T00:27:00+09:00,2,���쓌,3.8,���쓌,23.6,81.1,0,0,0,0
2019-09-16T00:28:00+09:00,1.9,���쓌,3.8,���쓌,23.7,81.1,0,0,0,0
2019-09-16T00:29:00+09:00,1.9,���쓌,3.8,���쓌,23.7,81,0,0,0,0
2019-09-16T00:30:00+09:00,1.9,���쓌,3.8,���쓌,23.8,80.9,0,0,0,0
2019-09-16T00:31:00+09:00,1.8,���쓌,3.3,��,23.9,80.4,0,0,0,0
2019-09-16T00:32:00+09:00,1.8,���쓌,3.3,��,23.8,80.4,0,0,0,0
2019-09-16T00:33:00+09:00,1.8,���쓌,3.3,��,23.6,81.1,0,0,0,0
2019-09-16T00:34:00+09:00,1.8,���쓌,3.3,��,23.6,81.6,0,0,0,0
2019-09-16T00:35:00+09:00,1.8,���쓌,3.3,��,23.6,81.5,0,0,0,0
2019-09-16T00:36:00+09:00,1.8,���쓌,3.3,��,23.7,81.4,0,0,0,0
2019-09-16T00:37:00+09:00,1.8,���쓌,3.3,��,23.7,81.3,0,0,0,0
2019-09-16T00:38:00+09:00,1.9,��,3.3,��,23.7,81.2,0,0,0,0
2019-09-16T00:39:00+09:00,1.8,��,3.1,���k��,23.8,81.1,0,0,0,0
2019-09-16T00:40:00+09:00,1.7,��,3.1,���k��,23.9,80.8,0,0,0,0
2019-09-16T00:41:00+09:00,1.6,��,3.1,���k��,23.8,80.6,0,0,0,0
2019-09-16T00:42:00+09:00,1.5,��,3.1,���k��,23.7,80.8,0,0,0,0
2019-09-16T00:43:00+09:00,1.5,��,3.1,���k��,23.7,80.8,0,0,0,0
2019-09-16T00:44:00+09:00,1.5,��,3.1,���k��,23.7,80.7,0,0,0,0
2019-09-16T00:45:00+09:00,1.4,��,3.1,���k��,23.8,80.7,0,0,0,0
2019-09-16T00:46:00+09:00,1.3,��,2.9,���k��,23.9,80.5,0,0,0,0
2019-09-16T00:47:00+09:00,1.3,��,2.9,���k��,23.7,80.8,0,0,0,0
2019-09-16T00:48:00+09:00,1.2,��,2.9,��,23.8,81.1,0,0,0,0
2019-09-16T00:49:00+09:00,1.3,��,2.9,��,23.8,80.7,0,0,0,0
2019-09-16T00:50:00+09:00,,,,,,,,,,
2019-09-16T00:51:00+09:00,1.4,��,2.9,��,23.7,81.1,0,0,0,0
2019-09-16T00:52:00+09:00,1.4,��,2.9,��,23.7,81.1,0,0,0,0
2019-09-16T00:53:00+09:00,1.6,��,4.6,���쓌,23.8,81,0,0,0,0
2019-09-16T00:54:00+09:00,1.7,��,4.6,���쓌,23.8,80.9,0,0,0,0
2019-09-16T00:55:00+09:00,1.8,��,4.6,���쓌,23.7,81,0,0,0,0
2019-09-16T00:56:00+09:00,2,���쓌,4.6,���쓌,23.7,81,0,0,0,0
2019-09-16T00:57:00+09:00,2.1,��,4.6,���쓌,23.8,80.8,0,0,0,0
2019-09-16T00:58:00+09:00,2.1,��,4.6,���쓌,23.8,80.6,0,0,0,0
2019-09-16T00:59:00+09:00,2,��,4.6,���쓌,23.7,80.9,0,0,0,0
2019-09-16T01:00:00+09:00,2,��,4.6,���쓌,23.6,81.3,0,0,0,0
2019-09-16T01:01:00+09:00,2,���쓌,4.6,���쓌,23.6,81.6,0,0,0,0
2019-09-16T01:02:00+09:00,2.1,���쓌,4.6,���쓌,23.6,81.8,0,0,0,0
2019-09-16T01:03:00+09:00,2,��,4,���쓌,23.6,81.8,0,0,0,0
2019-09-16T01:04:00+09:00,2,��,4,���쓌,23.6,81.6,0,0,0,0
2019-09-16T01:05:00+09:00,1.9,��,4,���쓌,23.6,81.7,0,0,0,0
2019-09-16T01:06:00+09:00,1.7,��,3.6,��,23.5,82,0,0,0,0
2019-09-16T01:07:00+09:00,1.7,��,3.1,���k��,23.5,82.4,0,0,0,0
2019-09-16T01:08:00+09:00,1.8,��,4,���쓌,23.5,82.2,0,0,0,0
2019-09-16T01:09:00+09:00,2,��,4.4,�쓌,23.7,81.8,0,0,0,0
2019-09-16T01:10:00+09:00,1.9,��,4.4,�쓌,23.7,81.7,0,0,0,0
2019-09-16T01:11:00+09:00,1.9,��,4.4,�쓌,23.7,81.8,0,0,0,0
2019-09-16T01:12:00+09:00,1.9,��,4.4,�쓌,23.6,81.8,0,0,0,0
2019-09-16T01:13:00+09:00,1.9,��,4.4,�쓌,23.7,81.4,0,0,0,0
2019-09-16T01:14:00+09:00,1.9,��,4.4,�쓌,23.7,81.3,0,0,0,0
2019-09-16T01:15:00+09:00,1.9,��,4.4,�쓌,23.8,81,0,0,0,0
2019-09-16T01:16:00+09:00,2.1,��,4.4,�쓌,23.8,80.9,0,0,0,0
2019-09-16T01:17:00+09:00,2.2,��,4.4,�쓌,23.7,80.9,0,0,0,0
2019-09-16T01:18:00+09:00,2.1,��,4.4,�쓌,23.9,81,0,0,0,0
2019-09-16T01:19:00+09:00,2.1,��,4.4,��,23.8,80.7,0,0,0,0
2019-09-16T01:20:00+09:00,2.2,��,4.5,���쓌,23.8,80.6,0,0,0,0
2019-09-16T01:21:00+09:00,2.5,��,5.1,���쓌,23.8,80.5,0,0,0,0
2019-09-16T01:22:00+09:00,2.5,��,5.1,���쓌,23.9,80.5,0,0,0,0
2019-09-16T01:23:00+09:00,2.5,��,5.1,���쓌,23.8,80.4,0,0,0,0
2019-09-16T01:24:00+09:00,,,,,,,,,,
2019-09-16T01:25:00+09:00,2.5,���쓌,5.1,���쓌,23.7,80.8,0,0,0,0
2019-09-16T01:26:00+09:00,2.5,���쓌,5.1,���쓌,23.7,81,0,0,0,0
2019-09-16T01:27:00+09:00,2.3,���쓌,5.1,���쓌,23.8,80.7,0,0,0,0
2019-09-16T01:28:00+09:00,2.3,���쓌,5.1,���쓌,23.8,80.7,0,0,0,0
2019-09-16T01:29:00+09:00,2.1,���쓌,5.1,���쓌,23.7,80.9,0,0,0,0
2019-09-16T01:30:00+09:00,2,���쓌,5.1,���쓌,23.6,81.5,0,0,0,0
2019-09-16T01:31:00+09:00,1.8,���쓌,4.1,�쓌,23.6,81.9,0,0,0,0
2019-09-16T01:32:00+09:00,1.6,���쓌,4.1,�쓌,23.7,81.3,0,0,0,0
2019-09-16T01:33:00+09:00,1.6,���쓌,4.1,�쓌,23.8,81.1,0,0,0,0
2019-09-16T01:34:00+09:00,1.5,���쓌,3.8,���쓌,23.8,80.9,0,0,0,0
2019-09-16T01:35:00+09:00,1.4,���쓌,3.8,���쓌,23.8,80.9,0,0,0,0
2019-09-16T01:36:00+09:00,1.4,���쓌,3.1,�쓌,23.8,80.8,0,0,0,0
2019-09-16T01:37:00+09:00,1.3,��,3.1,�쓌,23.7,81.1,0,0,0,0
2019-09-16T01:38:00+09:00,1.4,��,3.1,�쓌,23.6,81.3,0,0,0,0
2019-09-16T01:39:00+09:00,1.4,��,3.1,�쓌,23.5,81.9,0,0,0,0
2019-09-16T01:40:00+09:00,1.4,��,3.1,�쓌,23.5,82.1,0,0,0,0
2019-09-16T01:41:00+09:00,1.4,��,3.1,�쓌,23.6,82.3,0,0,0,0
2019-09-16T01:42:00+09:00,1.4,��,3.1,�쓌,23.5,82.1,0,0,0,0
2019-09-16T01:43:00+09:00,1.4,��,3.1,�쓌,23.4,82.2,0,0,0,0
2019-09-16T01:44:00+09:00,1.4,��,2.6,�쓌,23.4,82.5,0,0,0,0
2019-09-16T01:45:00+09:00,1.5,��,2.6,�쓌,23.3,82.9,0,0,0,0
2019-09-16T01:46:00+09:00,1.5,��,2.9,��,23.4,83.2,0,0,0,0
2019-09-16T01:47:00+09:00,1.6,��,2.9,��,23.6,82.9,0,0,0,0
2019-09-16T01:48:00+09:00,1.7,��,3.4,���쓌,23.7,82.3,0,0,0,0
2019-09-16T01:49:00+09:00,1.7,��,3.4,���쓌,23.8,81.9,0,0,0,0
2019-09-16T01:50:00+09:00,1.7,��,3.4,���쓌,23.8,81.4,0,0,0,0
2019-09-16T01:51:00+09:00,1.8,��,5,���쓌,23.6,81.6,0,0,0,0
2019-09-16T01:52:00+09:00,1.9,��,5,���쓌,23.5,82,0,0,0,0
2019-09-16T01:53:00+09:00,,,,,,,,,,
2019-09-16T01:54:00+09:00,1.8,��,5,���쓌,23.6,82.2,0,0,0,0
2019-09-16T01:55:00+09:00,1.7,��,5,���쓌,23.7,82,0,0,0,0
2019-09-16T01:56:00+09:00,1.6,��,5,���쓌,23.6,81.8,0,0,0,0
2019-09-16T01:57:00+09:00,1.6,��,5,���쓌,23.8,82.1,0,0,0,0
2019-09-16T01:58:00+09:00,1.4,��,5,���쓌,23.7,81.6,0,0,0,0
2019-09-16T01:59:00+09:00,1.4,��,5,���쓌,23.5,81.7,0,0,0,0
2019-09-16T02:00:00+09:00,1.4,��,5,���쓌,23.5,82.1,0,0,0,0
2019-09-16T02:01:00+09:00,1.2,��,2.8,���k��,23.6,82.2,0,0,0,0
2019-09-16T02:02:00+09:00,1.1,��,2.5,�k��,23.6,82.2,0,0,0,0
2019-09-16T02:03:00+09:00,1.1,���쓌,2.5,�k��,23.6,82.3,0,0,0,0
2019-09-16T02:04:00+09:00,1,��,2.5,�k��,23.6,82.4,0,0,0,0
2019-09-16T02:05:00+09:00,0.9,��,2.5,�k��,23.7,82.2,0,0,0,0
2019-09-16T02:06:00+09:00,0.9,��,2.5,�k��,23.6,82.1,0,0,0,0
2019-09-16T02:07:00+09:00,0.9,��,2.5,�k��,23.5,82.3,0,0,0,0
2019-09-16T02:08:00+09:00,0.9,��,2.1,��,23.4,82.7,0,0,0,0
2019-09-16T02:09:00+09:00,0.9,���쓌,2.1,��,23.4,83,0,0,0,0
2019-09-16T02:10:00+09:00,0.9,��,2.1,��,23.5,82.9,0,0,0,0
2019-09-16T02:11:00+09:00,0.9,��,1.8,���k��,23.5,82.8,0,0,0,0
2019-09-16T02:12:00+09:00,0.9,��,1.8,���k��,23.5,83,0,0,0,0
2019-09-16T02:13:00+09:00,1,��,2,���쓌,23.5,82.9,0,0,0,0
2019-09-16T02:14:00+09:00,1.1,��,2.5,���k��,23.5,82.9,0,0,0,0
2019-09-16T02:15:00+09:00,1.2,���쓌,3.7,�k��,23.6,82.6,0,0,0,0
2019-09-16T02:16:00+09:00,1.4,��,4.5,�k��,23.7,82.2,0,0,0,0
2019-09-16T02:17:00+09:00,1.6,��,4.5,�k��,23.8,81.9,0,0,0,0
2019-09-16T02:18:00+09:00,1.8,��,4.5,�k��,23.7,81.6,0,0,0,0
2019-09-16T02:19:00+09:00,1.8,��,4.5,�k��,23.6,81.8,0,0,0,0
2019-09-16T02:20:00+09:00,1.9,��,4.5,�k��,23.6,82,0,0,0,0
2019-09-16T02:21:00+09:00,2,��,4.5,�k��,23.7,82,0,0,0,0
2019-09-16T02:22:00+09:00,2.1,��,4.5,�k��,23.8,81.6,0,0,0,0
2019-09-16T02:23:00+09:00,2.1,���k��,4.5,�k��,23.7,81.6,0,0,0,0
2019-09-16T02:24:00+09:00,,,,,,,,,,
2019-09-16T02:25:00+09:00,2.1,��,4.5,�k��,23.7,81.3,0,0,0,0
2019-09-16T02:26:00+09:00,1.9,��,4.3,�k�k��,23.7,81.3,0,0,0,0
2019-09-16T02:27:00+09:00,1.8,��,3.6,���쓌,23.6,81.5,0,0,0,0
2019-09-16T02:28:00+09:00,1.7,��,3.6,���쓌,23.5,81.9,0,0,0,0
2019-09-16T02:29:00+09:00,1.8,��,3.9,�k�k��,23.7,81.7,0,0,0,0
2019-09-16T02:30:00+09:00,1.9,���k��,5.5,���k��,23.7,81.6,0,0,0,0
2019-09-16T02:31:00+09:00,2,���k��,5.5,���k��,23.8,81.2,0,0,0,0
2019-09-16T02:32:00+09:00,1.9,���k��,5.5,���k��,23.8,80.9,0,0,0,0
2019-09-16T02:33:00+09:00,1.9,���k��,5.5,���k��,23.9,80.7,0,0,0,0
2019-09-16T02:34:00+09:00,2,���k��,5.5,���k��,23.8,80.7,0,0,0,0
2019-09-16T02:35:00+09:00,2.1,���k��,5.5,���k��,23.8,80.7,0,0,0,0
2019-09-16T02:36:00+09:00,2.1,���k��,5.5,���k��,23.7,81,0,0,0,0
2019-09-16T02:37:00+09:00,2.1,���k��,5.5,���k��,23.6,81.3,0,0,0,0
2019-09-16T02:38:00+09:00,2,���k��,5.5,���k��,23.7,81.4,0,0,0,0
2019-09-16T02:39:00+09:00,2,���k��,5.5,���k��,23.7,81.4,0,0,0,0
2019-09-16T02:40:00+09:00,1.8,���k��,3.7,�k��,23.6,81.7,0,0,0,0
2019-09-16T02:41:00+09:00,1.7,���k��,3.5,�k��,23.6,81.8,0,0,0,0
2019-09-16T02:42:00+09:00,1.7,���k��,3.5,�k��,23.6,81.7,0,0,0,0
2019-09-16T02:43:00+09:00,1.7,���k��,3.5,�k��,23.6,81.6,0,0,0,0
2019-09-16T02:44:00+09:00,1.6,���k��,3.5,�k��,23.6,81.7,0,0,0,0
2019-09-16T02:45:00+09:00,1.7,��,3.9,���k��,23.7,81.5,0,0,0,0
2019-09-16T02:46:00+09:00,1.6,��,3.9,���k��,23.8,81.1,0,0,0,0
2019-09-16T02:47:00+09:00,1.6,��,3.9,���k��,23.8,80.8,0,0,0,0
2019-09-16T02:48:00+09:00,1.6,��,3.9,���k��,23.8,80.7,0,0,0,0
2019-09-16T02:49:00+09:00,1.6,��,3.9,���k��,23.7,80.9,0,0,0,0
2019-09-16T02:50:00+09:00,1.6,��,3.9,���k��,23.7,81.1,0,0,0,0
2019-09-16T02:51:00+09:00,1.7,��,3.9,���k��,23.7,81.2,0,0,0,0
2019-09-16T02:52:00+09:00,1.6,��,3.9,���k��,23.7,81.2,0,0,0,0
2019-09-16T02:53:00+09:00,1.7,��,3.9,���k��,23.6,81.3,0,0,0,0
2019-09-16T02:54:00+09:00,,,,,,,,,,
2019-09-16T02:55:00+09:00,1.6,���k��,4.1,�k,23.9,80.6,0,0,0,0
2019-09-16T02:56:00+09:00,,,,,,,,,,
2019-09-16T02:57:00+09:00,1.6,���k��,4.1,�k,23.8,80.3,0,0,0,0
2019-09-16T02:58:00+09:00,1.5,���k��,4.1,�k,23.9,80.6,0,0,0,0
2019-09-16T02:59:00+09:00,1.5,��,4.1,�k,23.6,81.1,0,0,0,0
2019-09-16T03:00:00+09:00,1.4,��,4.1,�k,23.5,81.8,0,0,0,0
2019-09-16T03:01:00+09:00,1.2,���k��,4.1,�k,23.6,81.8,0,0,0,0
2019-09-16T03:02:00+09:00,1.2,���k��,4.1,�k,23.6,81.6,0,0,0,0
2019-09-16T03:03:00+09:00,1.1,���k��,4.1,�k,23.6,81.5,0,0,0,0
2019-09-16T03:04:00+09:00,1.1,��,4.1,�k,23.6,81.6,0,0,0,0
2019-09-16T03:05:00+09:00,1.3,��,4.2,��,23.6,81.7,0,0,0,0
2019-09-16T03:06:00+09:00,1.2,��,4.2,��,23.6,81.8,0,0,0,0
2019-09-16T03:07:00+09:00,1.3,��,4.2,��,23.6,81.8,0,0,0,0
2019-09-16T03:08:00+09:00,1.5,��,4.2,��,23.8,81,0,0,0,0
2019-09-16T03:09:00+09:00,1.6,��,4.2,��,23.8,80.9,0,0,0,0
2019-09-16T03:10:00+09:00,1.7,��,4.2,��,23.7,81.1,0,0,0,0
2019-09-16T03:11:00+09:00,1.8,��,4.2,��,23.7,81.2,0,0,0,0
2019-09-16T03:12:00+09:00,1.8,��,4.2,��,23.7,81.3,0,0,0,0
2019-09-16T03:13:00+09:00,1.9,��,4.2,��,23.7,81.3,0,0,0,0
2019-09-16T03:14:00+09:00,1.8,��,4.2,��,23.6,81.4,0,0,0,0
2019-09-16T03:15:00+09:00,1.6,��,2.7,���쓌,23.6,81.4,0,0,0,0
2019-09-16T03:16:00+09:00,1.7,��,3.4,��,23.6,81.4,0,0,0,0
2019-09-16T03:17:00+09:00,1.7,��,3.4,��,23.7,81.1,0,0,0,0
2019-09-16T03:18:00+09:00,1.7,��,3.4,��,23.7,81,0,0,0,0
2019-09-16T03:19:00+09:00,1.8,��,3.4,��,23.8,80.7,0,0,0,0
2019-09-16T03:20:00+09:00,1.7,��,3.4,��,23.8,80.5,0,0,0,0
2019-09-16T03:21:00+09:00,1.7,��,3.4,��,23.8,80.5,0,0,0,0
2019-09-16T03:22:00+09:00,1.8,��,3.4,��,23.7,80.7,0,0,0,0
2019-09-16T03:23:00+09:00,2,��,3.5,���k��,23.7,80.8,0,0,0,0
2019-09-16T03:24:00+09:00,2.1,��,3.5,���k��,23.8,80.4,0,0,0,0
2019-09-16T03:25:00+09:00,2.2,��,4.4,���k��,23.7,80.5,0,0,0,0
2019-09-16T03:26:00+09:00,2.2,��,4.9,���k��,23.8,80.4,0,0,0,0
2019-09-16T03:27:00+09:00,2.4,��,5.6,���k��,23.8,80,0,0,0,0
2019-09-16T03:28:00+09:00,2.5,��,5.6,���k��,23.7,80.4,0,0,0,0
2019-09-16T03:29:00+09:00,,,,,,,,,,
2019-09-16T03:30:00+09:00,2.5,���k��,5.6,���k��,23.7,80.7,0,0,0,0
2019-09-16T03:31:00+09:00,2.7,��,5.6,���k��,23.7,80.6,0,0,0,0
2019-09-16T03:32:00+09:00,2.7,��,5.6,���k��,23.8,80.3,0,0,0,0
2019-09-16T03:33:00+09:00,2.5,��,5.6,���k��,23.8,80.2,0,0,0,0
2019-09-16T03:34:00+09:00,2.4,��,5.6,���k��,23.8,80.3,0,0,0,0
2019-09-16T03:35:00+09:00,2.5,��,5.6,���k��,23.7,80.4,0,0,0,0
2019-09-16T03:36:00+09:00,2.4,��,5.6,���k��,23.7,80.2,0,0,0,0
2019-09-16T03:37:00+09:00,2.3,��,4.8,���k��,23.7,80.2,0,0,0,0
2019-09-16T03:38:00+09:00,2.3,��,5.2,���쓌,23.7,80.4,0,0,0,0
2019-09-16T03:39:00+09:00,2.3,��,5.2,���쓌,23.8,79.9,0,0,0,0
2019-09-16T03:40:00+09:00,2.4,��,5.2,���쓌,23.8,79.7,0,0,0,0
2019-09-16T03:41:00+09:00,2.4,��,5.2,���쓌,23.8,79.8,0,0,0,0
2019-09-16T03:42:00+09:00,2.4,��,5.2,���쓌,23.8,79.9,0,0,0,0
2019-09-16T03:43:00+09:00,2.5,��,5.2,���쓌,23.7,80.2,0,0,0,0
2019-09-16T03:44:00+09:00,2.5,��,5.2,���쓌,23.6,80.5,0,0,0,0
2019-09-16T03:45:00+09:00,2.6,��,5.2,���쓌,23.7,80.5,0,0,0,0
2019-09-16T03:46:00+09:00,2.6,��,5.2,���쓌,23.8,80.2,0,0,0,0
2019-09-16T03:47:00+09:00,2.7,��,5.2,���쓌,23.8,79.9,0,0,0,0
2019-09-16T03:48:00+09:00,2.6,��,5.2,���쓌,23.7,80,0,0,0,0
2019-09-16T03:49:00+09:00,2.6,���쓌,5.2,���쓌,23.6,80.5,0,0,0,0
2019-09-16T03:50:00+09:00,2.5,���쓌,5.2,���쓌,23.6,80.8,0,0,0,0
2019-09-16T03:51:00+09:00,2.4,���쓌,5.2,���쓌,23.6,80.8,0,0,0,0
2019-09-16T03:52:00+09:00,2.4,���쓌,5.2,���쓌,23.6,80.8,0,0,0,0
2019-09-16T03:53:00+09:00,2.4,���쓌,5.2,���쓌,23.6,80.8,0,0,0,0
2019-09-16T03:54:00+09:00,2.4,���쓌,5.2,���쓌,23.6,80.7,0,0,0,0
2019-09-16T03:55:00+09:00,2.3,���쓌,5.2,���쓌,23.7,80,0,0,0,0
2019-09-16T03:56:00+09:00,2.3,���쓌,5.2,���쓌,23.8,79.7,0,0,0,0
2019-09-16T03:57:00+09:00,2.2,��,4.1,���쓌,23.7,79.6,0,0,0,0
2019-09-16T03:58:00+09:00,2.2,��,4.1,���쓌,23.7,79.5,0,0,0,0
2019-09-16T03:59:00+09:00,,,,,,,,,,
2019-09-16T04:00:00+09:00,2.3,��,4.7,���쓌,23.8,79.4,0,0,0,0
2019-09-16T04:01:00+09:00,2.4,��,4.7,���쓌,23.7,79.4,0,0,0,0
2019-09-16T04:02:00+09:00,2.4,��,4.7,���쓌,23.7,79.3,0,0,0,0
2019-09-16T04:03:00+09:00,2.4,��,4.7,���쓌,23.6,79.8,0,0,0,0
2019-09-16T04:04:00+09:00,2.4,��,4.7,���쓌,23.7,79.5,0,0,0,0
2019-09-16T04:05:00+09:00,2.4,��,4.7,���쓌,23.8,79.4,0,0,0,0
2019-09-16T04:06:00+09:00,2.4,��,4.7,���쓌,23.7,79.3,0,0,0,0
2019-09-16T04:07:00+09:00,2.5,��,4.7,���쓌,23.7,79.5,0,0,0,0
2019-09-16T04:08:00+09:00,2.4,��,4.7,���쓌,23.7,79.7,0,0,0,0
2019-09-16T04:09:00+09:00,2.3,��,4.2,���k��,23.6,79.9,0,0,0,0
2019-09-16T04:10:00+09:00,2.4,��,4.2,���k��,23.7,79.6,0,0,0,0
2019-09-16T04:11:00+09:00,2.3,��,4.1,���k��,23.7,79.6,0,0,0,0
2019-09-16T04:12:00+09:00,2.3,��,4.1,���k��,23.7,79.5,0,0,0,0
2019-09-16T04:13:00+09:00,2.4,��,4.8,��,23.7,79.6,0,0,0,0
2019-09-16T04:14:00+09:00,2.3,��,4.8,��,23.7,79.4,0,0,0,0
2019-09-16T04:15:00+09:00,2.3,��,4.8,��,23.7,79.4,0,0,0,0
2019-09-16T04:16:00+09:00,2.4,��,4.8,��,23.7,79.2,0,0,0,0
2019-09-16T04:17:00+09:00,2.4,��,4.8,��,23.8,79,0,0,0,0
2019-09-16T04:18:00+09:00,2.4,��,4.8,��,23.8,78.6,0,0,0,0
2019-09-16T04:19:00+09:00,2.4,��,4.8,��,23.8,78.7,0,0,0,0
2019-09-16T04:20:00+09:00,2.4,��,4.8,��,23.8,78.6,0,0,0,0
2019-09-16T04:21:00+09:00,2.5,��,5,���k��,23.9,78.4,0,0,0,0
2019-09-16T04:22:00+09:00,2.6,��,5,���k��,23.9,78.3,0,0,0,0
2019-09-16T04:23:00+09:00,2.5,��,5,���k��,23.8,78.4,0,0,0,0
2019-09-16T04:24:00+09:00,2.3,���k��,5,���k��,23.8,78.5,0,0,0,0
2019-09-16T04:25:00+09:00,2.2,���k��,5,���k��,23.8,78.5,0,0,0,0
2019-09-16T04:26:00+09:00,2.2,���k��,5,���k��,23.9,78.1,0,0,0,0
2019-09-16T04:27:00+09:00,2.3,���k��,5.7,���k��,23.9,78.1,0,0,0,0
2019-09-16T04:28:00+09:00,2.3,���k��,5.7,���k��,23.9,78.1,0,0,0,0
2019-09-16T04:29:00+09:00,,,,,,,,,,
2019-09-16T04:30:00+09:00,2.3,���k��,5.7,���k��,23.8,78.7,0,0,0,0
2019-09-16T04:31:00+09:00,2.3,���k��,5.7,���k��,23.8,78.7,0,0,0,0
2019-09-16T04:32:00+09:00,2.4,���k��,6,�k��,23.9,78.1,0,0,0,0
2019-09-16T04:33:00+09:00,2.5,���k��,6,�k��,24,77.8,0,0,0,0
2019-09-16T04:34:00+09:00,2.7,���k��,6,�k��,24,77.7,0,0,0,0
2019-09-16T04:35:00+09:00,2.8,���k��,6,�k��,24,77.5,0,0,0,0
2019-09-16T04:36:00+09:00,2.8,���k��,6,�k��,24,77.5,0,0,0,0
2019-09-16T04:37:00+09:00,2.6,���k��,6,�k��,24,77.8,0,0,0,0
2019-09-16T04:38:00+09:00,2.5,���k��,6,�k��,23.9,78,0,0,0,0
2019-09-16T04:39:00+09:00,2.5,���k��,6,�k��,23.9,77.9,0,0,0,0
2019-09-16T04:40:00+09:00,2.7,���k��,6.8,�쓌,23.9,77.9,0,0,0,0
2019-09-16T04:41:00+09:00,2.7,���k��,6.8,�쓌,24,77.8,0,0,0,0
2019-09-16T04:42:00+09:00,2.5,���k��,6.8,�쓌,24,77.6,0,0,0,0
2019-09-16T04:43:00+09:00,2.5,���k��,6.8,�쓌,24,77.4,0,0,0,0
2019-09-16T04:44:00+09:00,2.4,���k��,6.8,�쓌,24.1,77.3,0,0,0,0
2019-09-16T04:45:00+09:00,2.4,���k��,6.8,�쓌,24,77.2,0,0,0,0
2019-09-16T04:46:00+09:00,2.4,���k��,6.8,�쓌,24,77.5,0,0,0,0
2019-09-16T04:47:00+09:00,2.5,���k��,6.8,�쓌,23.9,77.7,0,0,0,0
2019-09-16T04:48:00+09:00,2.5,���k��,6.8,�쓌,24,77.6,0,0,0,0
2019-09-16T04:49:00+09:00,2.6,���k��,6.8,�쓌,24,77.7,0,0,0,0
2019-09-16T04:50:00+09:00,2.5,�k��,5.7,�k��,24,77.5,0,0,0,0
2019-09-16T04:51:00+09:00,2.5,�k��,5.7,�k��,24,77.7,0,0,0,0
2019-09-16T04:52:00+09:00,2.3,�k��,5.7,�k��,24,77.7,0,0,0,0
2019-09-16T04:53:00+09:00,2.3,�k��,5.7,�k��,23.9,77.9,0,0,0,0
2019-09-16T04:54:00+09:00,2.2,���k��,5.7,�k��,23.9,78,0,0,0,0
2019-09-16T04:55:00+09:00,2.2,���k��,5.7,�k��,23.9,77.7,0,0,0,0
2019-09-16T04:56:00+09:00,2.5,���k��,5.7,�k��,24,77.8,0,0,0,0
2019-09-16T04:57:00+09:00,2.6,���k��,5.7,�k��,23.9,77.8,0,0,0,0
2019-09-16T04:58:00+09:00,2.7,�k��,5.7,�k��,24,77.6,0,0,0,0
2019-09-16T04:59:00+09:00,2.8,�k��,5.7,�k��,24,77.6,0,0,0,0
2019-09-16T05:00:00+09:00,2.8,�k��,5.7,�k��,24,77.6,0,0,0,0
2019-09-16T05:01:00+09:00,3,�k��,5.7,�k��,24,77.6,0,0,0,0
2019-09-16T05:02:00+09:00,3.4,���k��,7.1,���쓌,24,77.3,0,0,0,0
2019-09-16T05:03:00+09:00,,,,,,,,,,
2019-09-16T05:04:00+09:00,3.7,�k��,7.1,���쓌,24,77.4,0,0,0,0
2019-09-16T05:05:00+09:00,4,�k��,7.5,�k��,24,77.4,0,0,0,0
2019-09-16T05:06:00+09:00,3.7,�k��,7.5,�k��,23.9,77.6,0,0,0,0
2019-09-16T05:07:00+09:00,3.6,�k��,7.5,�k��,23.9,77.8,0,0,0,0
2019-09-16T05:08:00+09:00,3.6,���k��,7.5,�k��,23.9,77.7,0,0,0,0
2019-09-16T05:09:00+09:00,3.6,���k��,7.5,�k��,23.9,77.9,0,0,0,0
2019-09-16T05:10:00+09:00,3.6,���k��,7.5,�k��,24,77.6,0,0,0,0
2019-09-16T05:11:00+09:00,3.6,���k��,7.5,�k��,24,77.6,0,0,0,0
2019-09-16T05:12:00+09:00,3.4,�k��,7.5,�k��,23.9,77.9,0,0,0,0
2019-09-16T05:13:00+09:00,3.3,�k��,7.5,�k��,23.9,77.9,0,0,0,0
2019-09-16T05:14:00+09:00,3,���k��,7.5,�k��,23.9,77.8,0,0,0,0
2019-09-16T05:15:00+09:00,2.8,���k��,5.6,���k��,24,77.8,0,0,0,0
2019-09-16T05:16:00+09:00,2.9,���k��,5.6,���k��,24,77.8,0,0,0,0
2019-09-16T05:17:00+09:00,2.9,���k��,5.6,���k��,24,77.7,0,0,0,0
2019-09-16T05:18:00+09:00,3,���k��,5.6,���k��,23.9,77.9,0,0,0,0
2019-09-16T05:19:00+09:00,2.9,���k��,5.3,�k��,23.9,78.1,0,0,0,0
2019-09-16T05:20:00+09:00,2.9,���k��,5.8,���k��,23.9,78,0,0,0,0
2019-09-16T05:21:00+09:00,2.9,���k��,5.8,���k��,24,77.7,0,0,0,0
2019-09-16T05:22:00+09:00,2.9,���k��,5.8,���k��,24,77.7,0,0,0,0
2019-09-16T05:23:00+09:00,2.9,���k��,5.8,���k��,24,77.4,0,0,0,0
2019-09-16T05:24:00+09:00,3.1,���k��,5.8,���k��,24,77.5,0,0,0,0
2019-09-16T05:25:00+09:00,3,���k��,5.8,���k��,23.9,77.7,0,0,0,0
2019-09-16T05:26:00+09:00,2.9,�k��,5.8,���k��,23.9,77.8,0,0,0,0
2019-09-16T05:27:00+09:00,2.8,���k��,5.8,���k��,23.9,78,0,0,0,0
2019-09-16T05:28:00+09:00,2.7,���k��,5.8,���k��,23.9,77.9,0,0,0,0
2019-09-16T05:29:00+09:00,2.6,�k��,5.8,���k��,24,77.6,0,0,0,0
2019-09-16T05:30:00+09:00,2.3,�k��,5.2,���k��,24,77.6,0,0,0,0
2019-09-16T05:31:00+09:00,2.1,���k��,5.2,���k��,23.9,77.7,0,0,0,0
2019-09-16T05:32:00+09:00,1.9,���k��,4.5,�k,23.9,78,0,0,0,0
2019-09-16T05:33:00+09:00,1.7,���k��,4.4,�k��,23.9,78.1,0,0,0,0
2019-09-16T05:34:00+09:00,1.5,��,3.3,�k�k��,23.8,78.2,0,0,0,0
2019-09-16T05:35:00+09:00,1.5,��,3.7,���k��,23.8,78.3,0,0,0,0
2019-09-16T05:36:00+09:00,,,,,,,,,,
2019-09-16T05:37:00+09:00,1.6,��,3.7,���k��,23.8,78.2,0,0,0,0
2019-09-16T05:38:00+09:00,1.6,��,3.7,���k��,23.8,78.4,0,0,0,0
2019-09-16T05:39:00+09:00,1.5,��,3.7,���k��,23.8,78.5,0,0,0,0
2019-09-16T05:40:00+09:00,1.6,���k��,3.7,���k��,23.8,78.5,0,0,0,0
2019-09-16T05:41:00+09:00,1.7,���k��,3.7,���k��,23.8,78.5,0,0,0,0
2019-09-16T05:42:00+09:00,1.8,���k��,3.9,���쓌,23.8,78.4,0,0,0,0
2019-09-16T05:43:00+09:00,2,���k��,3.9,���쓌,23.8,78.4,0,0,0,0
2019-09-16T05:44:00+09:00,2.2,���k��,4.2,��,23.8,78.3,0,0,0,0
2019-09-16T05:45:00+09:00,2.2,���k��,4.3,���k��,23.8,78.5,0,0,0,0
2019-09-16T05:46:00+09:00,2.2,���k��,4.3,���k��,23.8,78.5,0,0,0,0
2019-09-16T05:47:00+09:00,2.4,���k��,6.3,���k��,23.8,78.6,0,0,0,0
2019-09-16T05:48:00+09:00,2.5,���k��,6.3,���k��,23.8,78.6,0,0,0,0
2019-09-16T05:49:00+09:00,2.7,��,6.3,���k��,23.8,78.5,0,0,0,0
2019-09-16T05:50:00+09:00,2.8,��,6.3,���k��,23.8,78.3,0,0,0,0
2019-09-16T05:51:00+09:00,2.7,��,6.3,���k��,23.8,78.5,0,0,0,0
2019-09-16T05:52:00+09:00,2.6,���k��,6.3,���k��,23.8,78.5,0,0,0,0
2019-09-16T05:53:00+09:00,2.5,���k��,6.3,���k��,23.7,78.7,0,0,0,0
2019-09-16T05:54:00+09:00,2.4,���k��,6.3,���k��,23.7,78.8,0,0,0,0
2019-09-16T05:55:00+09:00,2.4,���k��,6.3,���k��,23.7,78.7,0,0,0,0
2019-09-16T05:56:00+09:00,2.5,���k��,6.3,���k��,23.8,78.3,0,0,0,0
2019-09-16T05:57:00+09:00,2.4,���k��,5.7,���k��,23.8,78.3,0,0,0,0
2019-09-16T05:58:00+09:00,2.2,���k��,5.7,���k��,23.8,78.3,0,0,0,0
2019-09-16T05:59:00+09:00,2.1,���k��,5.7,���k��,23.8,78.4,0,0,0,0
2019-09-16T06:00:00+09:00,2,���k��,5.7,���k��,23.8,78.4,0,0,0,0
2019-09-16T06:01:00+09:00,2,���k��,5.7,���k��,23.8,78.3,0,0,0,0
2019-09-16T06:02:00+09:00,2,���k��,5.7,���k��,23.7,78.5,0,0,0,0
2019-09-16T06:03:00+09:00,2,��,5.7,���k��,23.7,78.8,0,0,0,0
2019-09-16T06:04:00+09:00,1.9,��,5.7,���k��,23.7,78.9,0,0,0,0
2019-09-16T06:05:00+09:00,1.9,��,5.7,���k��,23.8,78.7,0,0,0,0
2019-09-16T06:06:00+09:00,,,,,,,,,,
2019-09-16T06:07:00+09:00,1.8,��,5.3,��,23.8,78.2,0,0,0,0
2019-09-16T06:08:00+09:00,,,,,,,,,,
2019-09-16T06:09:00+09:00,2.1,��,5.3,��,23.9,77.8,0,0,0,0
2019-09-16T06:10:00+09:00,2.1,��,5.3,��,23.9,77.9,0,0,0,0
2019-09-16T06:11:00+09:00,2.5,��,6.7,�k��,23.9,77.8,0,0,0,0
2019-09-16T06:12:00+09:00,2.7,��,6.7,�k��,23.9,77.6,0,0,0,0
2019-09-16T06:13:00+09:00,2.9,���k��,6.7,�k��,23.9,77.6,0,0,0,0
2019-09-16T06:14:00+09:00,3,���k��,6.7,�k��,23.9,77.6,0,0,0,0
2019-09-16T06:15:00+09:00,3.1,��,6.7,�k��,23.9,77.7,0,0,0,0
2019-09-16T06:16:00+09:00,3.2,��,6.7,�k��,23.9,77.8,0,0,0,0
2019-09-16T06:17:00+09:00,3,��,6.7,�k��,23.9,77.6,0,0,0,0
2019-09-16T06:18:00+09:00,3,��,6.7,�k��,23.9,77.7,0,0,0,0
2019-09-16T06:19:00+09:00,2.8,��,6.7,�k��,23.9,77.7,0,0,0,0
2019-09-16T06:20:00+09:00,2.7,��,6.7,�k��,23.8,78.1,0,0,0,0
2019-09-16T06:21:00+09:00,2.3,��,6.5,�k��,24,78.2,0,0,0,0
2019-09-16T06:22:00+09:00,2,��,4.6,���k��,23.8,78.3,0,0,0,0
2019-09-16T06:23:00+09:00,2,���쓌,4.6,���k��,23.8,78.2,0,0,0,0
2019-09-16T06:24:00+09:00,1.8,���쓌,3.9,���쓌,23.8,78.1,0,0,0,0
2019-09-16T06:25:00+09:00,1.7,���쓌,3.9,���쓌,23.8,78.3,0,0,0,0
2019-09-16T06:26:00+09:00,1.7,���쓌,3.7,�k��,23.8,78.2,0,0,0,0
2019-09-16T06:27:00+09:00,1.8,���쓌,4.4,�k��,23.8,77.9,0,0,0,0
2019-09-16T06:28:00+09:00,1.8,��,4.6,���쓌,23.8,78.2,0,0,0,0
2019-09-16T06:29:00+09:00,2.1,��,4.6,���쓌,23.8,78.1,0,0,0,0
2019-09-16T06:30:00+09:00,2.2,��,4.6,���쓌,23.8,78,0,0,0,0
2019-09-16T06:31:00+09:00,2.3,��,4.6,���쓌,23.8,78.1,0,0,0,0
2019-09-16T06:32:00+09:00,2.4,��,4.6,���쓌,23.8,78,0,0,0,0
2019-09-16T06:33:00+09:00,2.3,��,4.6,���쓌,23.9,77.7,0,0,0,0
2019-09-16T06:34:00+09:00,2.4,��,4.8,���k��,23.9,77.7,0,0,0,0
2019-09-16T06:35:00+09:00,2.4,���k��,4.8,���k��,23.9,77.2,0,0,0,0
2019-09-16T06:36:00+09:00,2.3,��,4.8,���k��,23.9,77.6,0,0,0,0
2019-09-16T06:37:00+09:00,2.2,��,4.8,���k��,23.9,77.6,0,0,0,0